Flag for U.S.A. Weather past 2 weeks in Warminster Township, Pennsylvania, U.S.A.

Now
77 °F

Sunny.


Feels Like: 79 °F
Forecast: 69 / 91 °F
Wind: 5 mph from North

Location: Doylestown Airport

Current Time: Sep 3, 2015 at 9:41:39 AM

Latest Report: Sep 3, 2015 at 8:54 AM


Visibility: 10 mi

Pressure: 29.89 "Hg

Humidity: 69%

Dew point: 66 °F

Location of Warminster TownshipLocation

Historic Weather in Warminster Township — Graph

°F

Warminster Township temperature yesterday

Maximum temperature yesterday: 87 °F (at 2:54 PM)
Minimum temperature yesterday: 64 °F (at 5:54 AM)
Average temperature yesterday: 75 °F

Past Weeks' High & Low Weather Summary

 TemperatureHumidityPressure
High88 °F (Aug 31, 4:54 PM)100% (Aug 19, 7:54 PM)30.22 "Hg (Aug 19, 7:54 PM)
Low53 °F (Aug 28, 6:54 AM)31% (Aug 22, 3:54 PM)29.81 "Hg (Aug 24, 5:54 PM)
Average72 °F72%30.01 "Hg
* Reported Aug 19 7:54 AM — Sep 3 7:54 AM, Warminster Township, Weather by CustomWeather, © 2015

Note: Actual official high and low records may vary slightly from our data, if they occured in-between our weather recording intervals... More about our weather records

Advertising

Warminster Township weather history for previous 24 hours

 ConditionsComfort  
Time TempWeatherWind HumidityBarometerVisibility
7:54 AM
Thu, Sep 3
70 °FSunny.No wind84%29.90 "Hg10 mi
6:54 AM66 °FClear.No wind93%29.88 "Hg9 mi
5:54 AM66 °FClear.No wind93%29.88 "Hg10 mi
4:54 AM66 °FClear.No wind93%29.87 "Hg10 mi
3:54 AM67 °FClear.No wind90%29.87 "Hg10 mi
2:54 AM68 °FClear.No wind90%29.86 "Hg10 mi
1:54 AM69 °FClear.No wind87%29.88 "Hg10 mi
12:54 AM69 °FClear.No wind87%29.89 "Hg10 mi
11:54 PM
Wed, Sep 2
70 °FClear.No wind84%29.90 "Hg10 mi
10:54 PM71 °FClear.No wind84%29.90 "Hg10 mi
9:54 PM72 °FClear.No wind84%29.89 "Hg10 mi
8:54 PM74 °FClear.No wind82%29.89 "Hg10 mi
7:54 PM76 °FScattered clouds.No wind74%29.89 "Hg10 mi
6:54 PM79 °FSunny.No wind65%29.89 "Hg10 mi
5:54 PM83 °FPartly sunny.No wind53%29.90 "Hg10 mi
4:54 PM87 °FSunny.6 mph43%29.90 "Hg10 mi
3:54 PM85 °FSunny.5 mph46%29.91 "Hg10 mi
2:54 PM87 °FPassing clouds.5 mph45%29.93 "Hg10 mi
1:54 PM86 °FPassing clouds.3 mph48%29.95 "Hg10 mi
12:54 PM84 °FSunny.5 mph51%29.97 "Hg10 mi
11:54 AM83 °FSunny.5 mph61%29.99 "Hg10 mi
10:54 AM82 °FSunny.3 mph63%30.01 "Hg10 mi
9:54 AM77 °FSunny.No wind74%30.01 "Hg10 mi
Weather by CustomWeather, © 2015

See weather overviewHow to use our weather pages